TIME,DELAY(SENSOR),PRES,OXYGEN,RAWTEMP,T(OPTODE),TCPHASE,FLUOR,BETA(BETA700),BETA(BETA412),BETA(BETA440),CDOM,C(CSC),ED(ED412.40),ED(ED444.00),ED(ED489.70),ED(ED554.30),LU(LU411.80),LU(LU443.40),LU(LU489.60),LU(LU554.10),COMP,TILTX,TILTY,CHECK
1367812490,5807,813.2899780273438000,42.4889106750488300,654.6810913085938000,4.8029251098632810,54.5655708312988300,52,99,87,79,80,14714,2147755748,2147424054,2148010020,2147876269,2147639451,2147061833,2148254802,2147197933,868,4,13,51433
1367816086,5807,865.7399902343750000,46.2929115295410160,660.6914062500000000,4.6052069664001465,54.0768508911132800,53,99,84,79,79,14713,2147758683,2147422674,2148009929,2147875611,2147641097,2147060379,2148257664,2147199707,3442,4,13,50950
1367819686,5807,881.5999755859375000,44.9636192321777340,660.6240844726562000,4.6074237823486330,54.2720909118652340,52,100,89,79,79,14714,2147757248,2147423451,2148009965,2147875446,2147638025,2147061403,2148255332,2147197778,3527,4,13,39091
1367823286,5806,901.4299926757812000,44.1365814208984400,663.9310302734375000,4.4984698295593260,54.4327812194824200,53,100,86,80,80,14714,2147757568,2147421641,2148011044,2147874486,2147642029,2147062162,2148257453,2147197229,221,4,13,64370
1367826886,5805,909.7800292968750000,44.0123291015625000,663.4672241210938000,4.5137600898742680,54.4403686523437500,52,100,83,79,79,14715,2147756022,2147421741,2148008877,2147875392,2147638052,2147055936,2148259648,2147197650,3536,4,13,32337
1367830486,5809,911.1099853515625000,44.0860290527343750,664.1226806640625000,4.4921531677246090,54.4390296936035160,53,98,85,79,81,14715,2147756452,2147424265,2148010816,2147875821,2147636800,2147059849,2148256676,2147197595,3465,4,13,53684
1367834086,5807,946.6400146484375000,45.6278991699218750,666.4912109375000000,4.4140357971191410,54.2447395324707000,52,101,88,77,80,14712,2147757321,2147422509,2148009801,2147876278,2147636827,2147058651,2148253083,2147195940,3152,4,13,36177
1367837686,5804,944.0000000000000000,45.5776786804199200,666.6005249023438000,4.4104309082031250,54.2527503967285160,52,96,87,79,79,14715,2147759131,2147425344,2148010148,2147876626,2147642395,2147061659,2148255990,2147196434,3529,4,13,9088
1367841286,5810,941.2000122070312000,45.6854515075683600,667.0004882812500000,4.3972301483154300,54.2443695068359400,53,98,90,79,80,14708,2147758226,2147423826,2148011894,2147875776,2147642505,2147060425,2148257636,2147196818,118,4,13,34691
1367844886,5808,965.5000000000000000,46.8568191528320300,669.9672241210938000,4.2992820739746090,54.1099586486816400,52,99,89,79,79,14707,2147760630,2147426075,2148010505,2147873380,2147637851,2147055360,2148255478,2147196589,120,4,13,55811
1367848486,5808,970.1300048828125000,46.7991485595703100,669.8870239257812000,4.3019309043884280,54.1210899353027340,53,100,86,79,81,14706,2147757357,2147421513,2148013330,2147877860,2147640704,2147059392,2148259620,2147196736,197,4,13,28929
1367852086,5809,971.6699829101562000,46.7588386535644500,669.9171142578125000,4.3009381294250490,54.1216812133789060,53,99,86,79,79,14709,2147758491,2147422473,2148013412,2147874267,2147639222,2147060891,2148260352,2147197622,3511,4,13,31140
1367855686,5810,965.2100219726562000,47.4192314147949200,670.8599853515625000,4.2697849273681640,54.0443000793457000,53,99,85,79,80,14708,2147756946,2147423277,2148012160,2147874029,2147641526,2147054482,2148258176,2147197778,199,4,13,56062
1367859286,5808,960.2100219726562000,47.6367111206054700,671.9259033203125000,4.2345561981201170,54.0279884338378900,53,98,84,79,79,14706,2147755620,2147424064,2148012781,2147876141,2147642267,2147058093,2148254372,2147198902,733,4,13,32197
1367862886,5811,964.7199707031250000,47.7666511535644500,672.3668212890625000,4.2199821472167970,54.0128288269043000,53,97,85,79,80,14706,2147756864,2147424813,2148011136,2147877732,2147641444,2147050642,2148260416,2147197677,90,4,13,12158
1367866486,5808,997.0000000000000000,48.8711814880371100,673.7230224609375000,4.1751351356506350,53.8750305175781250,53,98,85,79,79,14704,2147760054,2147425499,2148013540,2147875593,2147641481,2147052598,2148254756,2147197092,328,4,13,6982
1367870086,5808,996.6099853515625000,48.9117507934570300,673.6480712890625000,4.1776118278503420,53.8655891418457000,53,101,84,80,80,14709,2147758921,2147425627,2148007387,2147873325,2147640749,2147058157,2148259136,2147199990,140,4,13,12432
1367873686,5810,1003.5999755859375000,48.3944702148437500,673.3900756835938000,4.1861457824707030,53.9324417114257800,52,99,83,78,80,14705,2147756854,2147424283,2148013714,2147876205,2147644507,2147050989,2148260598,2147198948,342,4,13,23081
1367877286,5808,1006.1500244140625000,47.9086799621582000,672.5336914062500000,4.2144641876220700,53.9902305603027340,53,98,88,79,80,14706,2147753179,2147427492,2148012827,2147878857,2147641280,2147054272,2148260763,2147200786,152,4,13,1404
1367880886,5811,994.9699707031250000,47.8670692443847660,672.8079833984375000,4.2053928375244140,54.0033302307128900,52,98,85,78,80,14703,2147758345,2147423990,2148012416,2147873517,2147638308,2147051913,2148260032,2147200274,37,4,13,13118
1367884486,5811,991.0499877929688000,48.3055496215820300,673.4675903320312000,4.1835818290710450,53.9467201232910160,53,100,91,79,80,14706,2147760813,2147423104,2148013568,2147876452,2147642441,2147054573,2148257188,2147196397,3444,4,13,3079
1367888086,5809,998.9899902343750000,48.3451499938964840,673.7479858398438000,4.1743049621582030,53.9481811523437500,53,100,86,79,80,14707,2147756452,2147423067,2148011181,2147874386,2147642057,2147053833,2148259446,2147200484,3484,4,13,50993
1367891686,5808,996.0700073242188000,48.6151809692382800,673.5499877929688000,4.1808571815490720,53.9051513671875000,53,98,88,78,80,14704,2147753856,2147422893,2148012534,2147873929,2147640841,2147056475,2148258660,2147199341,481,4,13,18353
1367895286,5807,996.3900146484375000,48.8672294616699200,674.1359252929688000,4.1614761352539060,53.8819694519043000,52,96,89,79,79,14703,2147756013,2147425965,2148012672,2147878464,2147639277,2147058523,2148259062,2147198756,548,4,13,2232
1367898886,5809,995.2800292968750000,49.1868400573730500,675.8516845703125000,4.1046981811523440,53.8573188781738300,52,98,82,79,80,14704,2147758125,2147429348,2148012068,2147876900,2147639085,2147056658,2148255296,2147199094,196,4,13,43029
1367902486,5809,998.3300170898438000,49.0619201660156250,675.0382080078125000,4.1316218376159670,53.8614082336425800,52,98,87,78,81,14703,2147757504,2147423716,2148011968,2147874294,2147640493,2147052589,2148262089,2147194989,11,4,13,32182
1367906086,5810,993.4699707031250000,49.0391883850097660,675.8369750976562000,4.1051859855651855,53.8736991882324200,53,106,85,77,80,14704,2147757577,2147426139,2148011529,2147872237,2147639634,2147057828,2148258596,2147199424,237,4,13,20384
1367909686,5807,998.2299804687500000,48.7386093139648440,675.8192749023438000,4.1057720184326170,53.9178390502929700,51,99,84,79,80,14705,2147756946,2147424758,2148011090,2147876269,2147642660,2147053257,2148264640,2147199012,139,4,13,38865
1367913286,5809,1000.9500122070312000,49.0391082763671900,674.2011718750000000,4.1593151092529300,53.8585281372070300,53,98,88,78,80,14698,2147754560,2147427840,2148013339,2147874816,2147642578,2147059638,2148263908,2147199798,447,4,13,59438
1367916886,5808,1004.9099731445312000,48.5246810913085940,673.5609130859375000,4.1804962158203125,53.9165802001953100,53,100,88,79,80,14703,2147756178,2147424603,2148011099,2147874294,2147640274,2147057609,2148261851,2147198134,3569,4,13,23328
1367920486,5804,1010.8499755859375000,48.2465286254882800,672.0794067382812000,4.2294831275939940,53.9427604675293000,53,98,82,78,79,14700,2147756150,2147423158,2148009718,2147876196,2147643858,2147054208,2148257956,2147199936,3120,4,13,52744
1367924086,5806,1003.6599731445312000,47.7627792358398440,672.9011230468750000,4.2023138999938965,54.0162315368652340,53,99,90,78,81,14703,2147755876,2147421869,2148008374,2147873810,2147640347,2147055424,2148265590,2147196050,3325,4,13,64926
1367927686,5809,1004.3099975585938000,48.4251098632812500,673.6646728515625000,4.1770629882812500,53.9381217956543000,53,98,87,79,80,14698,2147757814,2147423387,2148010880,2147875913,2147644653,2147055616,2148258486,2147196726,103,4,13,56187
1367931286,5808,1005.7800292968750000,48.4588203430175800,673.2239990234375000,4.1916370391845700,53.9222793579101560,53,100,85,79,79,14702,2147757293,2147425819,2148011218,2147875940,2147641435,2147055561,2148263204,2147194916,32,4,13,61536
1367934886,5810,1013.4400024414062000,48.5684318542480500,672.8748168945312000,4.2031860351562500,53.9063415527343750,52,98,88,79,80,14701,2147759661,2147421467,2148010166,2147874843,2147642971,2147052123,2148259574,2147198363,3187,4,13,16947
1367938486,5809,1004.4699707031250000,47.8706398010253900,673.1199951171875000,4.1950778961181640,54.0044708251953100,52,98,84,79,80,14700,2147758281,2147425627,2148008960,2147873298,2147637622,2147054537,2148259876,2147199378,129,4,13,37018
1367942086,5808,1005.6500244140625000,48.5448989868164060,673.3660888671875000,4.1869368553161620,53.9137992858886700,53,98,87,80,81,14699,2147757860,2147423798,2148013001,2147872457,2147644178,2147059748,2148263241,2147195410,3062,4,13,50678
1367945686,5810,1008.2800292968750000,48.2393989562988300,673.4047241210938000,4.1856608390808105,53.9560508728027340,52,97,85,78,79,14701,2147757366,2147422162,2148014802,2147875977,2147641380,2147059876,2148257810,2147195940,132,4,13,55774
1367949286,5805,997.0000000000000000,48.9260292053222660,675.4805297851562000,4.1169829368591310,53.8869400024414060,51,100,86,80,78,14700,2147758418,2147427574,2148011364,2147875483,2147640777,2147051510,2148260900,2147198829,159,4,13,64000
1367952886,5810,1006.0800170898438000,49.5681800842285160,675.4578247070312000,4.1177368164062500,53.8005218505859400,52,98,87,78,80,14699,2147757577,2147423561,2148011675,2147874002,2147639588,2147056768,2148263643,2147197641,329,4,13,17221
1367956486,5806,1009.0100097656250000,49.7046813964843750,675.3591918945312000,4.1209998130798340,53.7783584594726560,52,100,83,79,80,14699,2147756845,2147423232,2148011273,2147871588,2147641664,2147055616,2148259785,2147199094,3521,4,13,27030
1367957456,5809,1004.6400146484375000,49.4499397277832000,674.6060180664062000,4.1459259986877440,53.8060188293457000,53,104,88,79,79,14699,2147759789,2147423414,2148012315,2147875364,2147643840,2147055268,2148263506,2147199021,3564,4,13,15189
